NC9W-13 Weather Reports


time (UTC)temp
C
wind
direction
speed
KPH
gust
KPH
rain 1hr
cm
rain 24hr
cm
rain mn
cm
humidity
%
barometer
mb
20260504014217 11 0 0.0 0.0 0.00 0.00 0.00 65 1013.5
20260504013718 11 0 0.0 0.0 0.00 0.00 0.00 64 1013.4
20260504013003 11 0 0.0 0.0 0.00 0.00 0.00 63 1013.2
20260504012503 11 0 0.0 0.0 0.00 0.00 0.00 63 1013.1
20260504012003 11 0 0.0 0.0 0.00 0.00 0.00 62 1013.2
20260504011503 11 0 0.0 0.0 0.00 0.00 0.00 62 1013.2
20260504011003 12 0 0.0 0.0 0.00 0.00 0.00 61 1013.2
20260504010503 12 0 0.0 0.0 0.00 0.00 0.00 60 1013.3
20260504010003 12 0 0.0 0.0 0.00 0.00 0.00 59 1013.1
20260504005503 12 0 0.0 0.0 0.00 0.00 0.00 58 1013.1
20260504005003 13 0 0.0 0.0 0.00 0.00 0.00 58 1013.1
20260504004503 13 0 0.0 0.0 0.00 0.00 0.00 58 1013.1
20260504004003 13 0 0.0 0.0 0.00 0.00 0.00 56 1013.0
20260504003503 13 0 0.0 0.0 0.00 0.00 0.00 56 1013.0
20260504003003 13 0 0.0 0.0 0.00 0.00 0.00 55 1012.9
20260504002717 14 0 0.0 0.0 0.00 0.00 0.00 55 1013.0
20260504002003 14 0 0.0 0.0 0.00 0.00 0.00 55 1012.9
20260504001503 15 0 0.0 0.0 0.00 0.00 0.00 53 1012.9
20260504001003 15 0 0.0 0.0 0.00 0.00 0.00 54 1013.0
20260504000503 15 210 0.0 3.2 0.00 0.00 0.00 53 1013.0
20260504000219 15 210 0.0 9.7 0.00 0.00 0.00 52 1013.0
20260503235503 15 210 0.0 9.7 0.00 0.00 0.00 52 1013.1
20260503235003 16 210 0.0 9.7 0.00 0.00 0.00 53 1013.1
20260503234503 16 210 0.0 9.7 0.00 0.00 0.00 51 1013.0
20260503234218 16 210 0.0 3.2 0.00 0.00 0.00 51 1013.0
20260503233503 16 210 0.0 6.4 0.00 0.00 0.00 53 1013.0
20260503233003 16 210 0.0 6.4 0.00 0.00 0.00 52 1013.1
20260503232503 16 210 0.0 6.4 0.00 0.00 0.00 52 1013.1
20260503232003 16 210 0.0 3.2 0.00 0.00 0.00 53 1013.2
20260503231503 16 210 0.0 9.7 0.00 0.00 0.00 53 1013.4
20260503231003 16 210 0.0 9.7 0.00 0.00 0.00 48 1013.5
20260503230717 16 210 0.0 9.7 0.00 0.00 0.00 48 1013.5
20260503230003 16 210 0.0 6.4 0.00 0.00 0.00 47 1013.6
20260503225503 16 210 3.2 6.4 0.00 0.00 0.00 46 1013.8
20260503225003 16 210 3.2 9.7 0.00 0.00 0.00 48 1013.9
20260503224503 16 210 3.2 9.7 0.00 0.00 0.00 45 1014.0
20260503224218 16 210 3.2 9.7 0.00 0.00 0.00 45 1014.0
20260503223503 17 210 3.2 12.9 0.00 0.00 0.00 46 1013.9
20260503223003 17 210 3.2 12.9 0.00 0.00 0.00 48 1013.6
20260503222503 17 210 0.0 6.4 0.00 0.00 0.00 45 1013.8
20260503222003 17 210 0.0 6.4 0.00 0.00 0.00 46 1014.0
20260503221503 17 210 3.2 6.4 0.00 0.00 0.00 48 1014.2
20260503221003 17 210 3.2 6.4 0.00 0.00 0.00 48 1014.2
20260503220503 17 210 3.2 6.4 0.00 0.00 0.00 46 1014.3
20260503220003 17 210 0.0 6.4 0.00 0.00 0.00 47 1014.5
20260503215503 17 210 0.0 6.4 0.00 0.00 0.00 44 1014.5
20260503215003 17 210 3.2 6.4 0.00 0.00 0.00 44 1014.6
20260503214503 17 210 3.2 6.4 0.00 0.00 0.00 43 1014.7
20260503214003 17 210 3.2 9.7 0.00 0.00 0.00 43 1014.8
20260503213503 17 210 3.2 9.7 0.00 0.00 0.00 44 1014.7
20260503213003 17 210 3.2 25.7 0.00 0.00 0.00 44 1014.5
20260503212503 17 210 6.4 25.7 0.00 0.00 0.00 45 1014.3
20260503212003 17 210 3.2 9.7 0.00 0.00 0.00 45 1014.5
20260503211503 17 210 0.0 6.4 0.00 0.00 0.00 44 1014.7
20260503211003 17 210 3.2 9.7 0.00 0.00 0.00 44 1014.8
20260503210503 17 210 3.2 9.7 0.00 0.00 0.00 45 1014.8
20260503210003 17 210 3.2 9.7 0.00 0.00 0.00 40 1015.0
20260503205503 17 210 3.2 9.7 0.00 0.00 0.00 44 1014.9
20260503205003 17 210 3.2 12.9 0.00 0.00 0.00 45 1015.0
20260503204503 17 210 3.2 16.1 0.00 0.00 0.00 42 1015.0
20260503204003 17 210 3.2 16.1 0.00 0.00 0.00 43 1015.1
20260503203503 17 210 3.2 12.9 0.00 0.00 0.00 46 1015.2
20260503203003 17 210 6.4 16.1 0.00 0.00 0.00 40 1015.2
20260503202503 17 210 3.2 16.1 0.00 0.00 0.00 42 1015.3
20260503202003 17 210 3.2 9.7 0.00 0.00 0.00 42 1015.5
20260503201503 17 210 3.2 9.7 0.00 0.00 0.00 39 1015.6
20260503201217 17 210 3.2 9.7 0.00 0.00 0.00 40 1015.8
20260503200503 18 210 3.2 12.9 0.00 0.00 0.00 43 1016.1
20260503200003 18 210 3.2 19.3 0.00 0.00 0.00 43 1016.2
20260503195503 18 210 0.0 19.3 0.00 0.00 0.00 40 1016.4
20260503195003 18 210 0.0 6.4 0.00 0.00 0.00 40 1016.5
20260503194503 18 210 3.2 16.1 0.00 0.00 0.00 39 1016.5
20260503194216 18 210 3.2 16.1 0.00 0.00 0.00 39 1016.6
20260503193503 18 210 3.2 16.1 0.00 0.00 0.00 37 1016.7
20260503193003 18 210 3.2 19.3 0.00 0.00 0.00 38 1016.8
20260503192717 18 210 3.2 19.3 0.00 0.00 0.00 41 1016.9
20260503192003 18 210 3.2 12.9 0.00 0.00 0.00 40 1017.0
20260503191503 18 210 3.2 12.9 0.00 0.00 0.00 38 1017.1
20260503191003 18 210 0.0 12.9 0.00 0.00 0.00 39 1017.0
20260503190503 18 210 3.2 12.9 0.00 0.00 0.00 41 1017.2
20260503190003 18 210 3.2 12.9 0.00 0.00 0.00 39 1017.3
20260503185503 18 210 3.2 12.9 0.00 0.00 0.00 39 1017.3
20260503185003 18 210 3.2 12.9 0.00 0.00 0.00 38 1017.5
20260503184503 18 210 3.2 12.9 0.00 0.00 0.00 41 1017.5
20260503184003 18 210 3.2 12.9 0.00 0.00 0.00 40 1017.5
20260503183503 17 210 0.0 12.9 0.00 0.00 0.00 39 1017.6
20260503183003 17 210 0.0 12.9 0.00 0.00 0.00 37 1017.7
20260503182503 17 210 3.2 19.3 0.00 0.00 0.00 41 1017.8
20260503182003 17 210 6.4 19.3 0.00 0.00 0.00 37 1017.8
20260503181504 17 210 3.2 16.1 0.00 0.00 0.00 42 1017.9
20260503181218 17 210 3.2 16.1 0.00 0.00 0.00 40 1017.9
20260503180503 17 210 3.2 22.5 0.00 0.00 0.00 46 1018.0
20260503180004 17 210 6.4 22.5 0.00 0.00 0.00 37 1018.0
20260503175503 17 210 6.4 22.5 0.00 0.00 0.00 37 1018.1
20260503175003 17 210 6.4 22.5 0.00 0.00 0.00 41 1018.2
20260503174503 17 210 3.2 16.1 0.00 0.00 0.00 40 1018.4
20260503174003 17 210 3.2 12.9 0.00 0.00 0.00 37 1018.5
20260503173503 17 210 6.4 22.5 0.00 0.00 0.00 40 1018.7
20260503173218 17 210 6.4 22.5 0.00 0.00 0.00 39 1018.6
20260503172504 17 210 6.4 22.5 0.00 0.00 0.00 38 1018.8
20260503172003 17 210 6.4 16.1 0.00 0.00 0.00 38 1018.8
20260503171503 17 210 3.2 16.1 0.00 0.00 0.00 40 1018.8
20260503171003 17 210 3.2 12.9 0.00 0.00 0.00 42 1018.8
20260503170503 16 210 3.2 12.9 0.00 0.00 0.00 41 1018.9
20260503151003 15 210 6.4 19.3 0.00 0.00 0.00 45 1020.1
20260503150503 16 210 3.2 19.3 0.00 0.00 0.00 44 1020.1
20260503131003 12 210 3.2 16.1 0.00 0.00 0.00 64 1020.0
20260503130503 12 210 3.2 9.7 0.00 0.00 0.00 65 1020.0
20260503110503 0 0 0.0 0.0 0.00 0.00 0.00 93 1019.3
20260503090503 0 0 0.0 0.0 0.00 0.00 0.00 91 1018.9
20260503081503 0 0 0.0 0.0 0.00 0.00 0.00 90 1018.7
20260503081003 0 0 0.0 0.0 0.00 0.00 0.00 90 1018.7
20260503080503 1 0 0.0 0.0 0.00 0.00 0.00 90 1018.7
20260503072717 1 0 0.0 0.0 0.00 0.00 0.00 89 1018.4
20260503072003 1 0 0.0 0.0 0.00 0.00 0.00 89 1018.4
20260503071503 1 0 0.0 0.0 0.00 0.00 0.00 89 1018.4
20260503071003 1 0 0.0 0.0 0.00 0.00 0.00 89 1018.4
20260503070503 1 0 0.0 0.0 0.00 0.00 0.00 88 1018.4
20260503055003 3 0 0.0 0.0 0.00 0.00 0.00 86 1018.5
20260503054503 3 0 0.0 0.0 0.00 0.00 0.00 86 1018.6
20260503054003 3 0 0.0 0.0 0.00 0.00 0.00 86 1018.6
20260503053503 3 0 0.0 0.0 0.00 0.00 0.00 85 1018.6
20260503053217 3 0 0.0 0.0 0.00 0.00 0.00 85 1018.6
20260503052503 3 0 0.0 0.0 0.00 0.00 0.00 85 1018.6
20260503052003 3 0 0.0 0.0 0.00 0.00 0.00 85 1018.6
20260503051503 4 0 0.0 0.0 0.00 0.00 0.00 85 1018.5
20260503051003 4 0 0.0 0.0 0.00 0.00 0.00 84 1018.6
20260503050718 4 0 0.0 0.0 0.00 0.00 0.00 84 1018.6
20260503050003 4 0 0.0 0.0 0.00 0.00 0.00 84 1018.5
20260503045503 5 0 0.0 0.0 0.00 0.00 0.00 83 1018.5
20260503045003 5 0 0.0 0.0 0.00 0.00 0.00 83 1018.5
20260503044503 5 0 0.0 0.0 0.00 0.00 0.00 83 1018.5
20260503044003 5 0 0.0 0.0 0.00 0.00 0.00 82 1018.5
20260503043503 5 0 0.0 0.0 0.00 0.00 0.00 82 1018.5
20260503043003 5 0 0.0 0.0 0.00 0.00 0.00 81 1018.4
20260503042503 5 0 0.0 0.0 0.00 0.00 0.00 81 1018.4
20260503042003 5 0 0.0 0.0 0.00 0.00 0.00 81 1018.4
20260503041503 5 0 0.0 0.0 0.00 0.00 0.00 80 1018.4
20260503041003 5 0 0.0 0.0 0.00 0.00 0.00 80 1018.4
20260503040503 6 0 0.0 0.0 0.00 0.00 0.00 79 1018.3
20260503040003 6 0 0.0 0.0 0.00 0.00 0.00 79 1018.3
20260503035503 6 0 0.0 0.0 0.00 0.00 0.00 79 1018.2
20260503035003 6 0 0.0 0.0 0.00 0.00 0.00 79 1018.2
20260503034503 7 0 0.0 0.0 0.00 0.00 0.00 79 1018.2
20260503034003 7 0 0.0 0.0 0.00 0.00 0.00 79 1018.2
20260503033503 7 0 0.0 0.0 0.00 0.00 0.00 80 1018.2
20260503033003 7 0 0.0 0.0 0.00 0.00 0.00 82 1018.1
20260503032503 7 0 0.0 0.0 0.00 0.00 0.00 86 1018.1
20260503032216 7 0 0.0 0.0 0.00 0.00 0.00 87 1018.1
20260503031503 7 0 0.0 0.0 0.00 0.00 0.00 87 1018.0
20260503031003 7 0 0.0 0.0 0.00 0.00 0.00 87 1018.0
20260503030503 7 0 0.0 0.0 0.00 0.00 0.00 87 1018.0
20260503030003 7 0 0.0 0.0 0.00 0.00 0.00 86 1018.0
20260503025503 7 0 0.0 0.0 0.00 0.00 0.00 86 1017.9
20260503025003 7 0 0.0 0.0 0.00 0.00 0.00 85 1017.9
20260503024503 7 0 0.0 0.0 0.00 0.00 0.00 85 1017.7
20260503024003 7 0 0.0 0.0 0.00 0.00 0.00 85 1017.7
20260503023717 7 0 0.0 0.0 0.00 0.00 0.00 85 1017.7
20260503023218 7 0 0.0 0.0 0.00 0.00 0.00 85 1017.7
20260503022503 7 0 0.0 0.0 0.00 0.00 0.00 85 1017.6
20260503022003 7 0 0.0 0.0 0.00 0.00 0.00 83 1017.6
20260503021717 7 0 0.0 0.0 0.00 0.00 0.00 83 1017.6
20260503021003 7 0 0.0 0.0 0.00 0.00 0.00 83 1017.5
20260503020503 7 0 0.0 0.0 0.00 0.00 0.00 83 1017.5
20260503020003 7 0 0.0 0.0 0.00 0.00 0.00 83 1017.4
20260503015503 7 0 0.0 0.0 0.00 0.00 0.00 82 1017.3
20260503015003 7 0 0.0 0.0 0.00 0.00 0.00 82 1017.2
20260503014503 7 0 0.0 0.0 0.00 0.00 0.00 81 1017.2